RH
18 18 18 17 18 18 18 18 17 17 17 17 17 17 17 17 17 17 18 19 18 18 18 22 27 25 27 25 26 27 24 32 38 39 36 29 23 18 12 7 7 3 6 23 28 27 21 15 14 16 21 22 26 29 35 52 54 46 55 76 92 96 91 81 77 78 76 61 47 44 41 48 52 43 37 34 33 30 27 24 20 22 22 24 28 29 30 31
17 17 17 16 16 16 16 16 15 16 15 16 16 17 17 17 18 19 20 20 20 19 17 22 27 26 28 26 29 33 34 46 46 32 28 25 20 17 11 4 5 4 10 26 27 24 17 11 11 11 18 22 26 26 28 46 48 42 54 69 81 89 84 77 72 65 68 61 47 49 48 45 46 41 39 40 38 32 29 27 25 27 27 27 28 29 31 31
15 15 15 15 16 15 15 15 15 15 14 15 15 15 16 17 19 20 21 22 22 20 18 21 26 28 28 28 32 40 51 54 40 29 22 15 12 11 9 4 7 8 11 26 28 21 15 11 10 8 13 21 24 24 26 37 42 42 48 58 67 73 75 74 72 65 60 50 45 56 55 46 43 41 43 42 38 33 32 30 30 31 31 30 28 29 31 31
14 14 13 14 14 14 14 14 14 14 14 14 14 14 15 17 19 21 24 25 23 21 19 21 27 29 27 30 36 48 60 50 29 24 17 7 8 9 6 4 9 10 12 26 28 19 14 10 9 8 10 18 24 26 26 23 31 43 43 48 57 62 68 69 69 68 59 49 42 49 58 50 43 49 56 55 47 37 33 31 29 30 30 30 29 29 31 31
13 12 12 13 13 13 13 13 14 13 13 13 13 14 14 17 20 23 27 26 24 21 20 22 28 30 28 32 42 58 58 37 22 19 13 6 6 6 5 6 9 13 20 27 24 14 10 9 9 8 9 18 23 27 28 17 21 39 40 39 50 57 61 64 66 69 68 62 44 42 60 58 49 57 62 62 57 42 35 31 26 28 28 29 29 28 30 29
13 12 11 11 11 11 12 12 13 12 13 12 13 13 14 18 23 28 31 28 24 21 21 24 29 30 30 35 45 59 50 27 21 16 11 7 5 5 4 8 12 18 27 27 18 10 7 8 8 8 10 16 22 25 26 16 14 34 42 37 44 50 56 62 63 68 72 69 53 44 60 65 57 59 58 58 57 42 33 30 25 26 26 27 28 27 29 29
13 12 10 10 10 10 10 11 12 11 12 12 12 12 15 21 27 33 32 28 23 20 23 25 31 31 30 42 53 56 41 23 20 15 11 9 6 5 6 12 15 18 24 20 13 7 5 8 8 8 11 16 21 21 20 16 12 26 40 39 41 44 52 57 58 68 74 70 58 46 62 75 66 62 59 55 50 40 33 27 24 25 26 26 27 27 28 29
14 12 10 9 9 9 10 10 10 11 11 12 12 13 17 23 29 32 27 25 21 21 26 28 33 33 35 48 48 39 30 21 19 14 10 10 10 10 12 17 17 16 17 11 7 6 5 8 8 7 11 16 18 17 17 16 13 19 30 34 38 43 49 50 54 71 78 73 59 49 66 77 68 65 64 57 48 44 39 30 25 24 25 26 27 28 28 28
15 13 11 9 8 8 9 9 10 10 11 11 11 14 20 23 28 28 23 22 21 23 27 31 34 32 42 54 39 24 20 16 16 14 13 17 17 15 17 18 16 13 11 7 5 5 5 6 7 7 10 14 16 16 16 15 18 21 21 26 39 48 51 50 55 65 72 73 63 59 72 72 65 65 63 59 52 44 41 33 25 25 25 26 27 27 28 29
17 14 12 9 8 7 8 8 9 9 10 11 11 16 20 22 26 25 23 22 23 26 28 32 33 35 51 57 39 24 16 14 16 15 16 21 19 16 18 17 13 9 7 6 4 4 5 5 6 6 9 14 15 15 14 14 19 22 19 25 40 47 52 57 58 58 63 72 67 66 77 73 67 65 58 55 52 45 41 33 24 25 26 25 27 28 28 29
22 16 12 10 9 7 7 8 9 9 10 10 11 17 21 22 25 25 24 24 24 28 30 32 34 43 57 51 33 18 12 14 15 14 15 18 18 15 15 13 11 8 6 6 4 4 3 4 5 6 10 13 15 13 12 13 15 17 19 24 33 41 50 60 63 54 57 72 70 67 76 77 73 71 58 47 48 45 46 46 30 24 27 25 27 29 29 28
28 21 14 10 9 7 7 7 8 9 9 10 12 17 20 22 24 26 25 24 27 29 31 35 37 49 57 41 23 11 9 14 13 13 15 14 14 13 12 11 10 9 8 6 5 4 3 3 5 6 9 11 14 13 13 14 13 16 21 24 34 50 56 60 66 56 55 71 69 66 78 81 75 70 56 44 45 46 62 71 41 23 26 26 28 29 29 28
32 27 19 11 9 7 6 7 7 8 9 10 13 17 20 22 24 25 25 24 29 30 33 38 39 53 55 28 12 8 8 12 11 13 13 12 12 11 10 10 9 9 9 8 6 5 3 3 4 6 7 11 14 12 12 13 14 17 20 22 33 54 62 60 63 59 62 73 68 69 79 79 72 66 55 45 45 51 69 73 47 36 31 24 31 29 28 30
35 32 25 15 10 7 6 6 7 8 9 10 13 17 19 22 25 26 26 27 30 32 36 40 42 56 50 20 8 10 10 11 10 12 12 12 11 9 9 8 8 8 8 8 8 6 4 4 4 5 8 11 12 9 9 10 13 18 20 24 28 42 59 59 54 55 66 70 64 69 75 72 71 67 60 52 51 56 61 56 55 67 49 25 30 30 28 31
36 34 29 20 11 8 7 6 7 8 9 10 14 17 18 21 26 28 27 27 30 31 35 43 49 51 36 15 10 12 13 12 10 12 12 11 11 10 9 7 7 7 7 7 7 6 5 5 5 6 8 10 9 8 10 9 11 16 21 30 30 37 54 58 50 52 63 63 62 76 81 75 69 64 64 62 62 63 57 52 61 81 68 35 28 30 30 30
36 35 31 24 14 8 7 6 7 8 8 11 14 17 18 20 25 29 29 27 28 32 37 43 47 45 27 13 13 13 14 12 9 11 10 9 11 9 8 7 6 5 6 6 5 5 4 5 6 7 9 10 10 9 9 8 10 14 21 30 34 38 46 53 56 57 62 62 64 77 80 74 66 63 68 68 69 70 64 61 65 78 76 49 29 28 31 30
36 34 31 27 18 9 7 6 6 8 9 11 14 16 18 20 23 28 29 28 30 36 40 36 33 35 23 12 13 12 11 8 7 9 8 9 10 8 7 6 5 4 4 4 4 5 5 7 8 9 10 10 9 8 10 12 12 14 19 23 28 32 35 46 59 59 61 63 61 66 68 66 63 62 68 69 70 73 67 65 69 77 81 63 38 28 30 31
33 32 29 27 21 11 7 6 6 7 9 11 14 15 19 25 24 25 30 33 39 43 40 32 27 27 18 10 10 8 7 7 7 8 8 8 8 7 7 6 5 4 4 4 4 5 7 8 8 9 10 8 7 7 11 14 13 15 18 20 23 26 29 40 50 51 58 65 62 61 62 65 65 63 66 68 67 69 65 63 68 75 80 70 45 31 30 30
27 28 28 25 22 14 7 6 6 7 9 11 13 14 24 35 30 29 37 37 38 36 25 20 21 18 11 8 7 6 6 6 6 8 7 7 7 8 7 6 5 4 5 6 6 7 8 8 9 10 9 8 8 7 8 10 11 16 17 19 22 21 27 38 43 43 48 57 60 55 54 59 64 66 68 69 66 66 66 68 70 72 73 64 47 34 30 30
23 24 25 23 21 16 8 6 6 6 9 9 13 20 27 32 27 25 31 30 28 21 10 8 10 8 7 7 6 7 8 7 6 7 6 6 7 7 7 6 5 6 6 7 8 7 8 9 10 11 8 7 9 8 8 9 12 16 15 18 20 18 27 38 41 41 38 42 47 46 46 50 55 61 65 66 67 66 65 69 73 72 69 61 48 35 28 29
23 22 22 21 20 16 9 6 5 6 8 6 15 25 20 14 15 14 16 17 15 10 6 6 7 5 7 7 6 7 8 8 7 5 5 6 6 8 7 5 7 8 7 8 9 7 8 11 10 9 7 7 9 10 11 11 12 14 12 15 15 15 27 35 35 40 39 35 36 40 45 48 52 58 61 63 66 66 62 63 70 72 68 62 54 41 30 28
26 24 22 20 18 16 9 5 5 6 7 10 20 25 14 9 11 11 11 13 10 6 6 7 7 7 7 7 8 8 8 8 7 6 6 6 7 9 6 4 6 7 7 7 9 8 8 8 7 7 8 9 10 10 11 10 9 10 9 11 12 15 29 37 34 36 38 31 29 35 39 44 54 58 60 61 63 63 57 57 63 67 68 64 57 47 33 27
31 26 23 20 18 16 11 5 5 6 7 14 22 18 11 10 11 10 12 13 12 7 6 6 7 7 7 7 8 8 9 8 7 7 6 7 8 7 5 5 5 5 6 6 7 9 9 7 6 6 7 8 8 9 9 8 7 7 8 8 9 12 21 31 34 33 34 31 25 27 34 48 61 64 64 60 57 61 58 57 60 62 68 66 56 47 34 27
33 28 25 21 17 14 10 5 4 8 10 14 17 12 10 11 11 12 12 13 13 8 5 5 5 6 6 7 7 8 8 7 6 7 6 8 8 5 4 6 6 4 5 5 5 7 7 5 5 6 7 6 6 6 6 7 7 7 7 7 7 8 7 17 30 31 30 29 26 26 37 59 69 70 72 63 58 64 62 61 65 64 69 67 56 49 39 29
35 31 27 22 18 14 11 7 6 9 11 13 14 11 11 11 12 14 14 14 15 8 5 6 5 6 6 6 7 7 6 5 5 6 5 7 8 6 5 5 6 5 5 6 5 5 6 5 5 5 5 4 5 5 5 6 7 6 7 5 6 6 4 9 21 23 20 24 31 31 35 58 71 69 71 67 62 66 64 63 67 68 73 72 60 52 44 32
36 32 28 24 18 12 10 11 13 14 11 9 11 10 10 11 13 15 14 16 16 9 6 7 6 6 6 6 6 6 8 7 5 6 6 6 7 7 6 5 5 6 5 6 5 5 5 5 6 6 5 4 4 5 4 5 6 6 6 4 5 7 6 8 12 14 13 19 34 33 25 47 70 70 66 65 65 65 64 62 61 66 78 79 68 54 42 32
37 32 28 25 18 15 17 16 15 15 11 9 10 10 10 11 15 17 16 20 18 8 6 7 5 6 6 5 5 6 10 9 6 7 6 6 7 7 8 8 7 6 5 6 8 8 6 6 7 7 6 5 5 5 5 5 5 5 4 4 6 6 7 8 8 11 9 11 27 30 21 32 53 59 58 61 66 66 66 64 59 61 71 75 71 59 43 32
37 32 28 25 19 17 18 15 14 13 11 10 11 11 10 11 15 17 22 28 17 5 5 5 4 5 5 5 5 5 8 7 8 9 6 6 7 7 9 9 8 7 5 7 10 9 7 7 8 8 7 6 5 6 6 6 7 6 4 5 6 6 7 8 7 9 8 10 21 24 21 24 33 49 61 63 68 71 69 65 60 58 61 63 64 59 46 33
37 32 29 24 16 15 13 12 15 14 10 11 10 11 10 10 14 16 24 28 15 4 6 5 5 5 4 4 5 5 5 6 8 8 6 6 6 7 9 8 6 6 6 6 8 7 7 7 6 7 7 6 7 7 7 7 7 6 5 5 6 5 6 7 7 8 9 15 21 18 18 24 32 52 71 76 73 71 69 65 61 59 58 58 57 54 46 35
36 31 29 23 20 27 29 23 15 7 5 9 10 10 11 11 14 19 27 24 10 5 5 4 5 5 4 5 6 6 6 5 6 6 6 7 7 7 7 6 6 7 7 6 7 6 6 6 6 6 6 5 6 6 6 6 6 6 5 5 6 6 7 8 8 9 12 19 20 15 15 19 31 49 65 74 69 61 61 66 71 71 64 59 56 52 46 36
34 30 30 25 23 32 35 26 16 8 7 10 10 10 11 13 14 21 26 17 7 6 5 4 5 4 5 6 6 6 5 5 6 6 6 7 8 8 8 8 9 9 9 8 8 8 7 7 7 6 6 7 6 6 6 5 6 7 6 6 7 9 11 12 13 13 18 22 16 13 14 13 30 50 55 60 57 50 54 60 67 73 68 62 58 52 46 39
31 27 27 24 19 20 19 15 16 19 16 12 12 11 12 16 18 20 19 11 8 8 4 4 5 4 5 5 5 6 5 5 6 6 6 6 7 8 8 8 8 10 12 10 9 8 7 7 7 7 7 6 6 8 7 6 7 8 8 10 12 15 17 18 20 19 20 21 15 14 14 17 41 58 52 54 57 51 52 51 53 60 62 62 60 53 49 42
27 23 23 21 14 11 11 14 18 22 19 12 11 11 13 20 22 19 14 9 8 7 4 5 5 4 5 5 5 5 5 5 5 5 5 5 6 7 7 6 6 10 11 9 8 8 8 8 7 9 8 7 7 9 10 10 10 10 10 13 16 18 21 22 21 21 22 19 13 14 14 24 51 61 50 52 56 53 53 50 47 52 55 56 55 51 49 44
23 20 22 17 10 7 10 19 23 20 16 12 12 13 16 21 21 16 12 8 5 5 5 5 4 4 5 5 6 6 5 5 5 5 4 5 7 7 8 7 6 7 8 9 8 7 10 11 8 8 9 9 9 9 10 11 10 10 10 12 16 18 21 24 20 20 21 16 15 21 22 30 51 57 49 45 46 53 63 60 53 52 53 52 48 49 49 46
20 21 25 19 13 8 6 13 20 18 15 13 12 15 18 19 16 12 10 6 4 5 5 4 4 5 5 5 6 5 5 6 6 5 4 6 8 8 8 8 7 6 8 11 11 8 9 10 8 8 9 8 9 8 8 9 10 12 11 12 16 15 17 21 18 16 17 16 19 25 29 36 45 47 43 41 40 46 60 67 62 55 56 55 49 51 54 49
22 26 31 28 25 19 11 12 16 15 13 13 15 17 16 14 12 10 8 6 5 5 4 5 5 5 6 6 6 6 5 5 6 5 5 6 6 7 8 8 7 6 8 10 11 10 11 11 8 7 8 7 8 9 8 9 11 12 13 14 15 14 15 21 21 17 18 22 22 19 26 42 49 49 45 42 43 44 51 65 69 62 60 62 56 50 51 50
29 29 26 25 26 21 15 13 13 13 11 12 16 17 12 10 9 7 7 7 6 5 5 6 6 5 7 6 7 7 5 6 5 4 6 7 7 7 7 7 7 7 7 8 9 10 10 11 8 6 8 8 8 9 7 8 10 10 13 14 14 14 16 21 24 23 23 26 23 14 23 45 56 58 53 46 47 47 49 61 71 70 66 67 66 56 50 48
40 34 22 18 20 18 16 14 12 11 11 12 16 16 12 10 8 7 7 7 6 6 5 6 6 6 7 6 7 8 6 6 6 5 7 7 8 8 7 7 7 6 6 6 9 9 8 10 9 6 8 7 7 8 9 9 8 10 13 13 15 19 23 27 29 31 30 29 26 17 18 39 55 58 56 52 52 51 50 57 69 76 74 71 72 72 68 57
45 36 24 18 16 16 16 15 12 9 10 12 14 14 10 9 8 7 8 8 7 6 6 6 6 6 6 6 6 7 6 6 5 5 7 7 9 9 7 7 8 7 6 5 8 7 6 10 11 7 7 7 7 7 10 12 10 11 12 12 15 19 24 29 27 28 32 31 31 24 22 45 61 58 58 61 59 55 52 54 64 77 80 74 69 72 76 67
35 27 20 16 15 17 16 12 10 9 12 12 11 10 8 7 7 6 7 8 6 6 6 6 6 6 6 6 6 6 6 6 5 6 6 6 8 8 7 7 7 6 6 5 6 7 6 10 11 9 7 7 9 9 11 13 11 12 13 14 18 19 22 28 25 26 33 33 33 26 29 55 66 59 60 62 60 57 52 53 61 69 74 73 69 68 71 69
27 19 17 15 15 16 13 10 10 9 11 11 9 9 8 7 6 5 7 8 7 6 5 6 6 6 5 6 6 6 6 6 6 6 6 5 6 7 7 7 6 6 6 5 6 8 8 10 11 12 9 7 9 9 8 10 11 12 13 16 21 22 25 34 36 33 31 33 34 27 32 57 64 60 62 60 56 57 54 56 61 63 66 68 69 70 71 71
31 19 15 15 15 13 10 10 10 9 10 11 10 9 8 8 7 7 8 8 7 6 5 6 6 6 6 6 6 6 6 7 6 5 5 5 6 7 7 7 6 6 6 5 6 8 10 11 11 11 9 7 8 7 6 9 11 12 14 16 19 21 26 36 42 38 31 31 32 27 35 57 63 64 70 63 53 55 59 63 63 63 68 68 66 69 74 79
28 20 15 15 14 11 12 12 11 10 10 9 8 7 7 7 8 7 8 8 7 6 6 6 6 5 6 5 6 7 7 7 7 5 6 6 5 7 7 6 7 6 5 6 8 10 10 11 12 13 11 9 8 6 6 9 10 13 16 16 16 18 22 28 31 32 32 31 32 34 47 64 68 70 73 62 47 50 62 68 66 65 69 72 72 71 73 80
27 25 18 16 14 11 13 15 12 11 10 9 9 8 7 7 8 8 8 7 7 7 6 6 6 5 5 5 5 6 6 8 8 6 7 7 6 7 6 6 7 5 6 10 12 10 10 12 14 16 16 15 12 10 11 11 11 14 15 15 16 17 19 23 23 27 33 32 31 36 45 56 60 61 65 63 56 57 64 66 64 66 69 74 77 75 73 76
32 26 17 15 15 14 14 13 11 11 11 10 10 10 9 8 8 8 7 7 7 7 7 6 6 5 5 5 6 6 6 7 8 8 7 7 7 7 6 7 7 5 8 15 14 9 11 13 15 17 19 19 17 16 16 14 12 12 12 12 15 17 19 23 26 29 33 31 30 34 39 44 48 50 57 65 68 72 75 70 63 63 65 70 76 75 74 77
31 26 20 16 14 14 14 12 10 11 10 11 13 14 12 9 8 7 7 8 7 7 7 6 6 6 5 6 6 7 7 6 8 9 7 8 8 6 7 7 6 8 14 15 11 9 10 11 13 17 18 17 17 17 13 11 11 12 11 10 11 14 18 25 32 32 31 31 32 36 42 42 45 55 62 64 66 71 76 75 71 69 65 66 72 74 73 77
33 29 22 19 18 17 16 13 11 10 9 12 15 17 14 10 10 8 7 8 7 7 8 7 7 7 7 7 7 7 8 7 7 8 7 8 8 5 8 6 6 16 21 12 7 10 12 12 12 14 15 13 13 14 10 8 10 12 12 13 12 13 15 22 30 30 27 31 31 31 37 39 45 59 67 67 70 73 74 77 80 82 77 70 72 76 76 77
35 31 19 20 23 21 19 16 13 10 9 10 12 14 14 13 13 11 8 8 8 8 10 10 8 8 7 7 7 8 9 8 9 9 8 9 8 7 8 6 7 18 19 9 7 11 13 15 14 11 11 11 10 11 10 8 11 12 13 15 14 15 16 18 22 25 28 35 38 37 37 38 47 61 66 70 77 79 79 80 79 81 84 80 78 81 83 81
30 28 21 23 27 24 22 19 17 16 14 12 11 11 12 13 14 12 8 9 11 10 9 10 10 8 7 7 7 9 10 10 11 11 10 10 10 9 10 9 8 11 11 8 10 11 13 16 15 12 13 13 11 11 10 9 11 13 14 15 15 14 15 15 17 23 28 30 35 41 40 41 53 63 63 69 77 78 80 81 76 79 85 83 81 83 86 87
32 30 28 29 28 25 24 21 20 20 19 18 17 15 14 14 15 13 9 9 12 11 10 10 10 8 8 8 8 8 9 9 10 11 11 12 12 11 11 11 10 10 9 9 10 12 14 15 13 13 15 16 13 11 11 10 12 14 15 16 15 13 14 16 17 23 26 26 30 37 40 44 56 62 64 70 75 77 81 82 80 82 84 81 80 83 87 89
37 32 31 34 33 29 26 23 21 21 20 20 20 19 18 17 16 15 12 10 10 10 10 9 9 8 7 8 8 7 7 7 8 9 9 10 11 10 11 10 10 10 10 9 10 12 14 14 13 13 17 18 14 11 12 11 11 15 16 16 17 18 18 19 19 21 25 29 34 39 43 50 58 63 68 71 72 75 80 81 83 85 83 82 83 84 87 90
44 39 35 38 38 32 27 24 22 21 20 19 18 18 18 17 15 14 15 13 10 9 10 10 10 9 9 9 8 7 6 6 6 6 6 7 7 7 8 8 8 9 10 10 10 10 12 14 14 15 19 19 14 12 13 13 16 20 20 17 19 21 21 20 20 21 23 28 37 46 54 63 65 65 69 73 74 78 83 83 85 87 85 84 85 84 84 89
Wind_Speed
16 15 15 15 15 15 15 15 15 15 15 15 15 16 16 16 16 15 15 14 13 12 11 11 11 11 11 12 12 13 14 12 10 10 11 8 8 8 7 7 8 8 6 9 11 11 10 10 11 9 9 8 5 5 5 8 4 3 1 2 2 2 1 1 2 3 1 1 6 7 6 7 6 5 3 2 3 4 3 5 7 7 11 15 20 23 23 21
15 15 15 15 15 15 15 15 16 16 16 17 17 18 18 18 18 17 16 15 13 12 11 11 10 11 11 11 12 12 12 10 13 14 8 6 7 9 11 9 7 7 8 11 12 10 10 8 7 6 7 6 3 5 1 4 5 2 2 2 3 1 4 3 4 3 2 3 4 5 3 4 6 5 2 3 5 4 5 8 9 12 15 18 21 22 22 21
15 15 14 15 15 15 15 16 16 17 17 18 18 19 19 20 20 19 17 15 13 11 10 10 10 10 10 11 10 8 10 11 12 7 1 1 5 7 9 8 7 8 12 13 11 10 10 10 10 8 7 6 4 4 3 5 6 2 1 3 4 5 4 4 6 5 6 5 5 5 3 3 5 4 2 3 4 5 6 8 10 13 15 16 18 19 21 21
14 14 14 14 15 15 15 16 16 17 18 18 19 20 21 21 21 19 17 14 12 11 10 9 9 9 9 10 8 7 8 10 4 4 5 4 4 6 7 7 7 10 12 13 13 13 12 12 11 9 8 7 3 3 7 5 4 2 1 4 6 6 3 4 6 6 6 5 6 7 5 3 5 5 3 2 0 4 6 7 9 12 15 17 17 17 18 18
14 14 14 14 15 15 15 16 17 17 18 19 20 21 23 22 20 17 15 13 11 10 9 8 9 8 8 8 5 5 7 5 4 7 5 4 2 6 7 7 8 10 10 12 14 14 11 11 9 9 7 7 3 1 7 7 4 5 2 5 9 8 4 4 6 4 3 7 5 6 6 2 5 7 3 2 1 1 3 4 9 12 15 16 15 16 16 16
15 15 14 14 15 15 15 16 17 18 18 19 21 22 24 22 19 17 15 12 10 9 9 8 8 7 8 7 5 3 8 1 6 5 5 4 1 4 6 8 9 9 9 12 14 12 10 8 8 8 7 7 5 2 8 7 4 5 3 5 9 8 6 4 5 3 3 5 5 5 7 2 2 4 4 4 3 2 1 3 9 13 14 16 15 15 15 15
16 15 15 15 15 15 15 16 17 18 18 20 21 22 23 21 18 16 14 11 9 9 9 8 7 7 7 6 4 4 8 2 7 5 5 3 2 3 6 7 8 7 9 13 12 10 9 9 8 7 7 7 5 4 8 7 1 2 5 8 7 6 7 7 6 6 3 8 5 4 11 4 3 1 1 3 4 3 5 5 10 12 13 16 14 14 14 14
16 16 15 15 15 15 15 16 17 18 19 20 21 22 21 18 17 15 13 10 8 8 9 8 7 6 6 5 4 7 6 4 7 4 4 3 4 4 6 6 8 9 11 12 11 10 8 9 9 8 9 6 5 5 7 8 4 0 4 8 8 6 5 6 7 9 8 7 4 3 10 4 6 1 2 3 2 3 9 7 10 13 13 15 13 14 13 13
17 17 16 15 15 15 15 16 17 18 18 20 21 22 20 16 15 13 11 10 8 8 9 8 7 6 6 4 7 7 2 7 6 4 4 4 3 4 5 7 9 9 11 11 10 10 8 8 8 7 8 7 7 7 7 8 1 2 1 4 7 7 5 3 4 7 7 4 3 4 7 6 5 3 3 4 5 5 10 9 10 13 13 14 12 14 12 12
18 18 17 16 15 15 15 16 17 18 18 20 21 21 19 15 14 11 9 10 8 8 8 8 7 6 5 5 9 3 4 3 5 5 3 4 4 5 7 9 8 8 10 9 8 10 9 9 8 7 8 7 8 7 7 6 2 1 4 4 8 7 6 2 1 2 4 3 4 6 4 3 3 4 5 5 7 6 8 7 12 12 12 14 12 13 11 11
19 19 18 17 16 15 16 16 17 18 18 20 21 21 19 14 13 10 8 10 8 8 8 7 7 6 6 8 8 3 1 3 3 5 3 4 5 6 7 7 7 8 9 8 8 10 11 11 10 7 5 4 7 7 6 3 2 3 3 2 6 8 7 3 2 2 2 3 4 7 4 3 3 4 5 6 8 7 5 7 8 12 11 12 12 12 9 10
19 20 19 18 17 16 16 16 17 18 18 20 21 21 19 15 13 10 8 10 8 7 7 7 6 5 6 9 4 5 2 4 2 3 4 4 6 5 6 6 6 9 9 9 8 8 11 11 10 9 7 6 7 7 5 6 3 3 2 3 5 10 5 3 3 2 3 2 4 7 3 3 4 5 6 7 7 3 5 9 8 11 11 11 11 11 9 9
20 21 20 19 18 16 16 16 17 17 18 20 20 21 19 15 13 9 8 10 7 7 6 6 5 4 7 5 4 4 4 2 1 3 4 5 6 4 4 5 6 8 10 11 10 8 9 10 10 11 11 9 9 6 7 7 6 4 3 7 4 6 2 2 1 1 4 1 3 5 1 3 8 7 6 8 7 5 6 8 8 4 7 11 10 9 9 9
21 21 21 20 18 17 16 16 17 17 18 19 20 21 18 15 14 9 8 9 7 7 6 5 4 3 6 2 5 2 2 1 2 4 5 5 5 5 3 4 7 7 9 10 11 11 9 10 10 11 10 9 10 9 9 8 7 5 5 6 5 2 2 4 2 2 4 3 2 1 3 1 7 7 6 6 5 5 8 9 1 5 5 9 10 9 10 9
20 21 21 21 19 18 16 16 17 17 18 19 20 20 18 15 14 9 9 9 7 7 8 8 5 5 7 2 5 3 4 6 5 5 5 5 6 6 4 3 6 7 8 9 10 10 9 9 9 8 8 10 11 9 9 8 6 6 5 4 3 2 1 5 2 1 3 3 4 4 3 2 4 7 5 3 2 3 7 4 3 4 6 6 10 9 9 10
20 21 21 21 20 18 17 16 16 17 18 19 20 20 18 15 14 11 11 9 9 7 6 7 7 10 7 1 8 6 6 5 2 3 2 5 8 4 2 1 4 6 7 8 8 9 8 8 8 7 9 10 8 7 7 7 7 6 5 5 1 1 3 4 3 3 4 2 5 5 3 2 4 8 5 3 3 3 4 3 3 2 5 7 8 10 8 9
20 20 21 21 21 19 17 16 16 17 18 19 21 21 19 16 14 12 12 11 12 8 7 9 9 9 5 2 7 6 4 0 1 3 1 3 8 4 1 4 4 5 6 8 8 8 8 7 6 6 7 7 6 7 7 7 7 4 5 6 3 3 5 4 5 5 5 3 2 5 5 3 5 8 6 4 5 4 4 4 4 2 2 6 6 9 9 9
20 20 21 21 21 20 18 16 16 17 18 19 20 21 21 16 14 14 12 10 7 7 10 12 11 6 2 3 3 0 1 2 1 3 2 2 4 4 5 5 3 5 6 7 7 8 7 5 6 6 6 7 7 7 6 8 6 4 3 3 1 4 5 7 7 7 8 5 3 5 5 3 6 8 7 6 6 6 6 4 4 1 2 5 7 9 10 9
21 21 21 20 20 19 18 16 15 17 19 20 20 22 20 13 12 12 10 7 5 5 4 5 8 3 2 2 2 3 4 2 2 4 4 2 2 6 7 4 4 6 6 5 6 8 6 5 6 6 6 8 9 9 10 11 7 8 7 3 4 7 3 9 8 8 10 8 5 5 4 2 8 9 9 8 7 7 5 3 2 1 3 5 8 8 11 10
22 22 21 20 19 19 18 16 15 17 19 21 21 18 12 6 5 4 5 9 10 8 5 2 3 3 3 1 3 4 2 3 6 2 2 3 3 6 5 5 6 6 7 6 6 7 6 6 5 6 8 7 6 5 7 9 7 7 7 4 8 9 3 11 9 9 8 5 4 5 4 2 5 8 9 9 8 8 6 4 3 3 4 6 8 8 11 9
24 23 22 20 19 19 18 16 15 15 18 22 20 11 6 7 5 3 4 8 8 5 4 3 3 5 6 6 3 3 6 6 5 0 1 4 5 6 5 5 6 6 7 6 3 6 6 6 6 10 10 5 6 8 6 8 8 7 8 5 8 8 3 9 9 10 6 3 4 5 4 3 4 7 8 10 10 9 9 8 6 6 6 6 8 8 10 9
25 24 23 21 19 18 17 16 14 14 17 18 14 11 6 9 7 8 9 9 3 2 2 1 5 4 5 3 2 2 8 5 4 4 2 4 8 6 5 6 7 7 4 3 3 4 7 6 6 8 3 6 7 7 7 8 8 8 7 6 7 3 7 9 8 10 6 3 3 5 4 2 6 7 7 11 11 9 9 9 8 8 7 6 7 8 9 11
25 26 25 22 19 18 17 15 12 14 16 14 13 12 7 8 10 11 9 9 5 5 6 4 5 4 3 2 4 4 9 3 2 7 5 6 8 4 5 6 6 4 3 4 6 6 6 2 1 4 8 7 8 7 8 8 6 8 7 7 7 4 4 4 7 10 7 5 4 2 1 4 7 6 5 9 10 8 9 9 8 7 6 7 8 9 9 12
26 27 26 24 21 16 16 15 12 15 15 15 16 11 8 7 11 14 9 8 7 4 3 2 3 1 3 2 1 7 6 1 0 5 6 7 7 2 5 7 6 5 4 4 6 8 7 5 5 5 6 5 8 8 9 7 6 8 8 8 7 8 11 4 7 9 6 8 6 2 0 4 6 7 6 7 8 7 8 9 8 7 5 7 9 9 8 11
27 27 26 26 21 16 17 15 11 13 14 15 14 6 6 8 10 12 9 6 7 4 6 2 3 2 4 2 5 5 1 1 2 5 5 5 8 4 4 4 4 5 1 3 6 8 3 7 6 5 7 7 7 7 8 6 6 7 8 9 10 10 13 6 8 7 4 4 5 3 2 2 6 8 8 8 10 9 9 11 11 8 5 6 8 8 10 11
28 28 27 26 22 18 14 8 7 9 12 10 5 3 6 8 11 12 7 5 6 4 7 6 4 3 3 5 5 1 2 4 4 4 2 3 5 7 5 2 3 5 5 1 7 6 0 4 4 6 8 7 8 8 9 8 6 6 4 5 9 9 9 8 5 3 5 3 5 6 3 0 6 9 11 11 11 12 10 11 13 9 6 6 7 9 11 11
28 28 28 26 23 18 10 6 10 12 8 4 3 5 7 8 11 10 5 5 4 3 6 6 3 2 2 2 3 3 1 3 5 4 3 1 4 8 6 5 3 1 2 5 4 1 2 3 1 3 7 6 8 6 3 4 5 5 6 11 10 10 9 10 9 6 8 4 6 9 4 3 4 7 12 12 11 12 12 12 12 10 9 8 7 8 11 12
28 28 28 26 21 16 10 10 13 12 8 8 7 8 8 9 11 6 5 5 1 1 3 4 5 2 4 2 4 7 2 3 2 4 4 1 5 7 6 7 6 2 2 6 3 3 2 6 2 2 6 5 5 6 6 3 6 7 10 12 9 10 10 10 9 8 9 6 4 7 5 5 3 5 9 9 9 10 12 13 13 12 12 11 10 10 12 13
29 28 28 27 19 11 10 10 12 15 12 12 10 10 10 11 10 5 6 5 1 2 0 3 2 6 5 3 6 6 1 4 3 1 5 3 5 5 7 6 4 5 4 7 7 2 3 5 6 5 7 5 7 10 8 5 6 9 12 11 9 10 9 9 9 8 8 6 6 7 6 6 2 6 7 4 6 8 9 11 10 11 12 12 13 13 13 14
29 27 28 27 15 6 7 9 13 16 14 12 12 12 13 10 6 6 6 3 1 3 3 1 1 5 5 6 9 7 3 4 1 2 6 6 7 7 6 5 3 6 6 7 10 4 2 2 4 4 7 8 9 9 8 7 7 10 11 9 9 9 8 7 6 6 6 6 8 10 9 8 4 4 5 3 3 5 6 7 6 6 11 12 12 13 14 14
28 27 27 26 13 5 6 6 6 8 8 10 12 12 11 6 5 7 5 1 1 3 5 4 3 3 6 7 7 6 4 3 3 5 7 6 9 8 6 7 5 6 8 7 9 8 5 5 4 5 3 7 8 7 8 9 8 7 6 6 7 6 5 5 4 5 6 6 8 10 11 12 6 2 4 5 3 2 4 7 8 10 12 12 11 13 14 13
27 25 25 22 12 11 12 7 7 9 6 8 10 8 7 5 6 7 4 2 2 2 1 3 5 4 6 6 5 2 1 2 3 4 6 4 6 6 4 4 2 3 7 4 4 8 8 5 3 4 3 2 6 6 7 8 7 6 4 4 6 4 4 4 4 4 6 6 8 9 9 7 1 4 5 7 3 1 3 5 8 11 14 14 13 14 12 11
25 24 22 16 11 12 14 10 9 9 8 8 8 6 5 6 6 6 6 3 1 3 2 1 2 2 6 6 4 2 2 3 1 2 2 4 6 4 4 3 3 5 6 6 4 3 4 5 6 5 5 2 6 6 4 2 3 6 4 4 6 4 5 6 4 4 6 7 8 8 8 4 6 4 3 6 4 1 1 4 6 8 12 13 14 14 12 11
25 21 19 13 10 11 10 9 7 8 8 7 7 5 7 8 6 6 8 4 4 3 2 2 2 4 6 7 1 3 4 5 2 3 3 6 8 4 4 3 1 5 6 6 6 2 1 3 5 3 4 2 7 6 7 7 7 7 6 4 6 6 5 6 5 5 5 6 8 7 5 1 6 4 4 6 6 4 2 4 4 3 7 10 13 12 12 12
23 17 14 11 10 10 9 10 8 7 8 7 6 6 8 7 6 6 6 2 3 2 3 3 3 6 6 5 2 3 4 3 3 5 6 5 5 1 2 3 4 5 7 5 5 5 5 2 4 2 2 2 7 5 6 7 5 3 6 5 5 6 6 6 9 10 9 8 6 3 0 3 6 7 6 3 3 5 6 5 6 2 3 6 10 11 10 11
23 14 9 9 10 8 8 9 8 7 7 6 6 7 8 7 7 5 4 5 4 3 2 4 5 7 6 7 6 5 5 3 2 5 5 4 5 3 3 5 5 5 7 5 5 6 5 3 3 1 2 3 2 6 5 6 3 2 4 3 3 7 8 8 9 10 9 7 5 3 2 6 7 6 4 3 4 5 7 7 3 4 2 5 6 9 12 11
23 14 11 12 11 8 9 9 8 8 7 6 7 8 7 8 10 7 1 1 4 5 6 4 4 4 6 5 6 8 8 6 7 6 3 5 2 1 1 2 3 5 7 5 5 5 4 6 5 3 2 3 6 2 6 5 4 4 3 4 4 4 6 6 6 6 7 7 5 5 3 3 4 2 2 4 6 6 6 4 1 3 2 5 6 8 11 11
21 12 13 14 9 9 9 9 8 8 6 6 9 10 10 11 11 9 4 1 4 4 6 8 2 2 7 6 4 9 7 4 5 5 3 3 4 1 3 2 4 1 6 6 5 4 4 8 5 3 0 3 5 4 5 6 6 3 5 7 5 4 3 4 4 5 6 7 5 6 5 3 3 0 2 3 6 6 7 5 2 2 4 3 4 5 5 6
16 9 10 9 12 11 9 10 8 7 6 7 8 8 10 12 11 8 4 3 6 6 5 8 4 3 6 5 3 3 4 3 2 2 2 1 3 1 2 1 3 2 4 6 5 4 4 7 4 3 1 3 2 4 2 3 3 3 4 4 3 3 4 4 5 5 5 7 5 6 5 3 4 3 4 4 5 5 6 7 4 2 3 4 3 4 4 4
12 8 4 10 15 12 12 11 8 7 6 8 9 8 9 11 11 9 4 2 5 5 5 7 5 3 5 6 4 3 4 3 2 4 2 2 3 5 4 1 3 2 3 5 5 5 3 4 5 3 2 5 2 3 5 4 3 4 4 4 3 3 4 3 6 5 4 6 6 6 4 3 3 3 4 3 2 3 5 6 5 2 2 4 3 3 5 6
9 7 2 12 14 14 13 8 7 7 7 8 9 11 11 10 11 6 7 5 7 6 6 8 7 5 5 5 5 4 3 2 3 4 3 3 3 2 4 4 2 3 5 6 4 4 4 2 5 7 5 4 3 6 5 6 7 5 4 5 4 4 5 4 5 4 4 5 6 8 5 3 3 3 5 4 3 4 7 8 6 4 3 4 4 2 4 5
7 5 4 14 14 14 10 6 6 6 7 8 10 12 9 6 9 6 3 6 7 7 7 7 8 7 5 5 5 3 2 3 5 5 3 2 2 2 5 6 2 4 6 8 3 7 6 5 4 6 7 8 12 9 3 6 6 4 2 3 3 3 3 4 5 4 4 6 7 8 6 2 4 6 5 5 4 4 6 7 7 5 5 6 6 4 2 1
6 4 5 14 15 13 8 6 7 7 8 9 12 15 11 4 6 9 6 6 7 6 7 7 7 6 5 5 5 3 2 4 6 4 3 1 5 8 7 5 3 4 6 6 4 8 5 4 3 6 6 7 14 11 2 4 1 1 2 2 3 4 2 3 4 4 5 6 6 6 4 1 3 4 4 6 6 5 6 5 7 6 5 5 7 6 4 3
6 7 3 10 14 11 8 7 7 8 9 12 14 15 12 6 5 9 9 8 7 6 8 7 6 7 6 6 5 5 2 2 5 5 5 3 5 9 5 4 0 5 4 5 7 6 4 3 3 5 5 6 9 5 4 0 2 2 3 3 3 4 4 4 4 4 5 6 6 6 4 1 2 3 3 7 11 10 8 6 6 6 5 3 4 6 4 3
6 7 6 8 12 10 8 7 9 9 10 13 13 13 12 8 7 9 11 10 7 7 8 7 7 8 7 4 4 6 4 1 3 3 2 2 2 4 5 5 1 4 5 11 10 7 4 4 4 5 5 6 6 2 3 6 5 4 7 6 5 4 1 3 5 5 5 5 7 6 3 2 0 0 4 8 10 11 11 11 9 7 5 3 1 5 4 3
5 5 6 6 10 8 8 8 10 11 10 11 10 10 12 11 9 10 11 11 9 10 10 8 8 10 8 6 6 7 6 4 4 2 2 3 4 3 7 7 5 3 7 9 6 6 5 5 5 6 6 7 7 7 9 9 6 8 10 10 8 3 2 3 5 6 5 5 7 4 1 4 3 4 6 5 5 6 7 11 13 11 8 5 1 3 4 2
4 5 6 4 4 7 7 8 10 11 11 11 8 8 11 10 8 9 11 9 10 10 9 8 9 9 8 8 7 7 7 8 8 6 3 4 7 4 7 10 10 8 8 1 5 3 4 6 7 9 11 13 12 9 10 9 7 9 11 11 11 9 6 5 6 8 8 7 7 3 2 6 4 6 5 1 2 3 5 8 11 11 11 9 5 2 2 1
5 6 6 7 4 6 6 7 9 11 14 14 9 9 11 9 9 9 10 9 8 9 7 8 10 11 9 8 8 7 7 8 9 9 6 4 6 4 7 7 5 9 7 6 7 4 5 6 8 11 12 14 12 9 11 10 5 7 10 9 10 10 9 8 8 8 7 6 8 8 8 9 4 5 4 1 1 5 7 6 7 9 10 10 8 7 5 4
5 6 7 10 8 7 8 9 10 10 12 12 9 11 13 12 11 11 8 8 8 9 9 9 11 12 12 11 9 7 6 7 7 7 5 5 7 4 4 4 2 8 6 7 3 3 5 3 5 9 11 12 10 9 14 13 6 7 10 9 10 11 9 9 10 6 5 6 6 9 11 9 5 4 3 4 4 6 5 4 6 7 8 8 8 9 9 9
6 6 7 9 9 9 10 11 11 9 9 9 8 9 11 12 12 12 10 9 9 10 10 10 12 12 13 14 12 9 8 9 8 5 5 7 7 5 6 4 1 4 6 6 2 3 2 2 4 6 8 9 10 10 12 12 8 8 9 8 11 13 11 9 9 6 7 8 5 6 9 5 4 3 3 6 6 6 6 3 5 5 6 7 9 9 9 11
11 11 9 7 7 8 9 9 9 8 7 7 7 8 9 11 13 12 12 11 12 11 10 11 13 12 12 13 12 11 10 12 12 8 7 8 6 5 5 2 1 4 6 5 2 3 3 4 5 6 6 7 9 10 10 9 9 10 11 9 8 9 9 7 7 6 6 7 6 6 6 2 4 3 2 4 5 6 6 5 4 3 4 6 7 7 8 10
13 12 10 7 7 7 7 9 9 8 7 7 8 9 10 12 13 12 10 10 13 13 9 10 11 9 10 13 14 15 15 14 12 8 6 10 10 9 7 3 4 7 6 5 6 5 5 5 5 6 7 7 8 10 10 10 8 7 6 5 5 6 7 7 7 6 5 5 5 4 1 2 2 3 3 2 6 6 4 5 5 4 5 5 5 6 7 9
Wind_Direction
5 3 359 359 356 354 353 352 351 348 346 343 340 336 332 329 327 324 323 321 319 315 310 308 309 311 313 316 320 323 320 315 302 264 235 247 283 304 287 260 261 256 222 216 232 250 246 237 242 241 253 253 243 258 157 140 191 191 97 36 89 84 181 235 244 202 314 279 155 136 128 123 117 109 117 175 112 97 135 114 112 124 119 116 122 131 138 142
4 1 357 355 353 352 350 348 347 344 343 341 337 334 331 329 327 325 323 320 319 317 314 311 310 313 315 322 328 329 333 316 280 265 240 241 270 278 274 265 252 226 200 219 232 242 253 252 259 253 249 268 249 242 199 166 207 117 91 96 91 185 194 213 252 217 214 226 156 114 94 109 116 117 125 135 122 145 139 110 110 108 109 117 127 136 140 145
2 357 354 352 350 348 346 345 343 341 340 338 336 334 332 331 329 326 323 321 319 316 313 311 313 316 321 329 329 342 340 304 270 257 160 320 283 270 258 243 229 210 203 224 251 266 272 283 297 297 271 269 252 267 309 193 184 91 107 93 109 181 192 218 241 242 234 220 163 126 96 114 116 102 86 114 150 163 132 117 119 117 123 129 134 141 144 150
359 354 351 348 345 344 342 341 339 339 337 335 335 334 333 332 330 328 325 322 317 313 311 311 316 318 329 332 335 6 326 285 278 72 52 359 292 247 231 222 215 204 211 238 271 283 279 281 286 286 278 274 272 306 297 242 161 120 146 93 130 169 184 205 223 246 263 261 192 148 122 142 106 82 56 27 182 143 121 128 133 131 136 136 140 147 150 154
358 353 349 344 342 340 338 337 336 336 335 335 335 335 335 334 333 332 327 324 316 311 308 309 317 321 333 336 358 7 306 273 77 66 39 1 287 231 215 205 199 196 221 253 271 278 272 270 272 268 263 263 272 340 279 266 134 124 116 108 135 161 170 178 216 227 331 311 239 150 129 165 92 95 86 55 249 149 95 131 145 138 139 142 148 151 154 155
358 354 349 344 340 337 335 333 333 333 332 334 334 335 336 336 336 333 329 325 316 310 310 313 320 329 337 343 21 331 285 349 76 59 38 18 323 218 199 188 185 189 232 264 270 270 261 255 256 255 252 251 257 249 264 266 125 122 129 125 137 160 156 162 213 139 62 295 250 138 106 37 47 115 108 124 196 251 289 200 149 141 144 146 152 156 157 156
360 355 350 345 339 336 333 331 331 331 332 333 334 337 338 338 338 337 333 326 318 313 313 319 322 335 342 338 1 267 258 31 79 69 44 39 68 148 177 179 187 204 245 264 263 259 260 255 248 253 256 255 263 263 275 285 261 136 151 151 138 149 154 168 171 119 188 242 235 122 91 63 258 132 50 167 202 252 267 239 145 142 149 149 157 160 156 157
360 357 352 346 340 336 331 330 330 329 331 333 333 338 339 340 341 341 339 333 325 316 315 325 329 336 346 338 302 255 242 73 91 89 60 84 93 129 161 178 208 236 257 263 261 264 268 260 252 253 258 268 292 275 284 286 257 134 146 157 143 145 159 171 153 140 188 218 228 120 105 169 216 139 286 219 246 266 277 265 150 149 154 153 162 158 156 158
359 357 354 347 341 336 331 329 328 328 331 332 333 339 341 339 341 344 345 341 327 318 319 321 327 333 346 331 279 268 93 79 104 111 85 107 129 160 187 215 221 238 260 261 264 271 268 264 256 257 276 294 294 277 279 282 224 85 251 142 125 140 145 147 151 152 167 167 166 119 117 194 192 152 228 241 268 266 278 263 156 154 159 157 165 156 155 159
359 358 354 349 343 336 331 328 327 328 330 332 334 339 341 338 339 340 344 343 325 317 316 313 331 333 317 272 271 289 87 89 128 129 127 155 177 193 220 241 240 242 261 263 261 265 262 277 293 303 306 287 275 275 272 287 82 208 268 123 129 134 117 112 242 150 128 111 118 111 120 237 222 198 213 213 246 257 279 251 159 159 166 160 163 153 157 165
359 357 355 351 344 337 332 327 326 327 330 332 334 338 340 336 334 330 333 340 323 306 307 313 330 327 296 267 280 8 73 255 162 150 185 198 208 222 234 248 258 251 259 265 256 265 269 282 301 301 303 301 288 276 265 309 87 243 295 111 146 109 83 84 17 4 101 117 125 120 132 275 289 252 228 190 222 240 299 290 178 165 166 163 160 151 165 172
359 357 355 351 345 339 331 326 326 326 329 331 331 336 336 333 331 320 318 332 319 297 300 313 328 335 298 267 288 16 317 252 211 191 189 211 226 234 260 262 259 258 266 274 260 262 271 281 299 284 281 316 295 283 318 349 333 267 283 243 149 99 79 86 59 3 60 79 152 139 147 237 228 237 234 188 206 191 34 310 232 168 166 164 158 154 169 169
359 357 355 351 346 339 332 327 324 324 328 328 330 334 333 329 327 309 306 325 313 292 297 309 327 321 283 283 36 12 287 253 251 240 206 226 235 223 265 264 253 261 268 277 280 282 278 276 287 281 283 294 281 304 332 301 277 278 244 240 181 121 156 121 105 113 75 335 190 161 198 213 197 214 230 189 190 131 104 259 243 157 184 164 154 164 164 162
356 356 354 351 345 339 332 325 322 322 324 326 327 331 331 326 322 299 292 320 309 285 293 298 314 285 266 306 61 28 254 188 174 213 221 228 238 221 223 250 250 256 256 263 277 288 290 280 274 273 278 277 277 303 305 267 242 250 250 242 229 212 168 142 194 124 114 244 227 190 289 190 174 195 224 195 176 147 169 224 257 30 265 175 158 172 161 162
353 354 353 350 345 339 332 325 321 320 321 324 324 329 329 322 320 291 278 319 318 287 299 299 267 234 261 218 110 94 166 191 179 187 216 224 244 230 184 229 249 245 253 254 263 274 274 271 266 262 261 250 254 274 281 270 236 222 245 246 241 306 149 151 186 108 128 198 99 71 302 305 183 184 202 185 121 148 177 207 83 52 289 222 172 172 165 166
350 350 350 348 344 338 332 325 319 317 318 319 321 326 327 319 315 292 274 302 312 294 296 293 230 216 278 11 125 133 183 205 145 157 207 244 265 280 132 252 254 233 247 243 248 263 255 254 259 259 269 263 253 254 259 274 254 211 223 246 219 72 208 170 150 141 119 120 114 132 207 272 213 183 167 144 132 149 161 150 110 109 286 259 191 170 169 169
347 347 347 347 343 337 331 324 318 316 314 316 319 322 323 315 303 292 274 280 304 298 258 274 265 236 274 69 136 153 188 210 68 207 222 262 274 316 181 221 227 215 231 231 235 250 237 232 248 247 254 257 255 258 249 252 257 218 219 242 212 204 222 171 152 163 137 120 160 186 223 245 198 184 164 164 165 163 187 161 118 121 263 281 229 177 171 173
348 346 344 345 342 337 330 323 317 313 310 314 317 319 321 310 292 290 280 281 304 286 257 261 273 270 228 169 169 73 41 65 119 221 218 239 263 257 229 235 218 206 218 219 220 228 222 213 232 240 235 231 236 253 254 253 277 326 294 278 258 237 213 156 146 160 159 168 194 203 237 209 167 178 171 173 178 178 201 171 115 144 223 282 260 191 174 177
349 346 344 343 340 336 329 323 316 311 309 310 317 321 318 303 285 280 261 248 232 255 284 216 228 282 49 115 112 49 26 59 157 201 209 204 234 224 236 254 218 219 224 198 193 210 214 210 224 240 236 224 223 226 243 263 304 349 321 302 290 277 170 132 138 160 172 180 192 204 244 202 162 175 176 174 184 185 183 142 121 192 216 253 258 204 178 180
352 347 343 340 339 336 328 322 313 310 308 310 322 322 307 294 275 251 218 229 232 265 335 65 261 360 62 76 109 122 79 175 196 211 195 187 232 230 226 226 208 217 235 216 180 185 215 236 228 239 243 238 253 252 257 288 335 344 307 280 271 285 105 126 142 154 173 184 171 186 235 230 165 170 177 176 184 192 181 170 184 211 220 238 255 215 179 182
353 350 345 340 338 334 327 320 311 306 305 311 322 313 314 7 337 337 336 261 226 253 340 38 334 39 50 344 2 185 200 184 188 69 99 182 230 241 202 209 222 215 229 237 184 152 207 249 244 242 256 293 339 357 346 323 327 303 289 275 266 279 139 147 147 138 164 230 165 175 221 213 151 155 169 176 182 194 192 189 196 207 226 241 265 244 188 182
352 351 347 342 337 333 326 318 306 299 300 306 306 278 305 12 342 331 329 285 232 198 237 222 228 132 75 337 37 204 227 198 148 126 106 213 224 232 208 210 233 223 189 218 238 191 208 227 241 249 306 2 332 337 326 306 303 291 287 279 269 251 142 146 147 143 161 252 184 178 220 169 136 145 165 181 184 194 197 194 196 201 221 229 255 261 205 183
352 350 347 344 337 333 323 313 304 294 291 289 283 285 323 1 334 332 318 281 274 224 218 253 244 151 128 204 134 222 249 259 124 122 113 235 232 239 252 243 256 260 176 201 247 255 246 237 351 356 37 14 312 301 286 286 282 267 257 266 276 248 204 167 167 167 171 218 208 179 224 105 123 141 173 194 187 192 198 192 196 198 213 226 238 255 215 184
351 348 347 345 337 332 322 311 294 278 273 268 269 292 346 343 335 342 325 283 269 224 153 354 300 71 64 52 157 244 257 359 57 126 132 235 257 273 267 267 276 263 189 199 273 270 287 359 45 13 15 325 301 290 271 267 259 257 247 259 275 266 279 290 152 168 194 207 194 178 193 128 149 166 182 200 191 191 193 186 197 205 214 236 241 260 244 201
349 347 345 344 338 330 321 306 278 263 260 259 262 285 343 336 347 344 323 290 265 199 121 153 241 102 90 175 232 251 253 106 89 103 148 250 289 290 268 261 270 296 87 129 270 259 299 31 41 339 321 293 284 276 268 267 270 273 254 256 269 266 279 274 160 165 237 217 171 186 261 157 174 187 185 185 186 190 191 188 198 208 220 231 229 242 246 218
347 345 342 343 338 326 319 301 296 296 274 263 273 348 336 339 348 333 308 276 260 186 149 186 203 129 137 215 245 330 155 185 94 82 217 268 301 284 277 225 205 324 348 232 256 263 206 47 22 326 311 291 274 263 256 259 267 275 282 319 314 296 289 275 241 241 291 297 167 195 269 173 179 200 196 179 181 187 186 194 199 203 220 226 223 227 226 214
344 343 340 340 337 330 319 302 316 308 286 307 6 332 329 342 336 324 290 264 256 178 174 173 131 136 191 217 274 299 233 133 112 166 206 109 253 253 264 279 252 238 298 253 252 306 268 250 192 280 286 269 265 266 249 261 268 279 344 5 337 309 310 305 300 280 274 284 180 192 231 261 213 196 187 174 178 190 189 197 199 200 216 221 232 239 226 215
341 341 338 336 336 323 298 297 305 286 292 355 344 309 328 330 315 296 266 286 37 176 209 120 89 172 202 161 240 277 314 106 196 191 145 100 260 254 265 287 305 325 301 286 288 84 308 290 343 300 266 246 285 339 33 5 281 283 334 354 331 304 300 294 292 274 271 282 228 214 225 262 275 141 156 167 180 194 197 203 202 199 209 215 224 234 227 222
339 339 335 333 331 312 287 287 283 270 287 330 326 313 319 308 301 275 259 286 156 188 173 86 127 189 205 211 221 257 206 164 272 144 145 209 228 240 285 301 324 310 287 277 278 78 73 310 342 330 271 279 344 347 356 345 294 296 319 324 305 293 283 276 277 277 291 292 265 262 252 263 283 128 138 168 196 209 208 207 207 204 209 214 219 221 220 226
337 336 333 330 327 317 301 274 263 265 273 298 309 309 305 290 278 257 254 280 194 153 132 166 205 173 198 224 215 222 204 180 239 198 194 219 200 196 258 271 267 282 263 240 257 280 96 240 289 280 272 309 335 321 308 304 297 301 302 291 276 271 260 254 263 266 276 273 262 264 252 247 251 148 146 152 189 225 213 197 195 205 219 218 216 217 215 223
333 334 330 325 315 276 275 263 283 290 269 287 303 297 291 274 247 264 266 287 249 175 163 178 155 179 226 249 228 201 197 196 175 212 230 223 208 203 225 233 231 264 256 229 230 238 207 187 204 204 232 308 300 278 267 247 248 271 278 279 280 278 259 238 244 249 246 257 265 259 249 245 249 102 128 132 127 230 206 198 193 196 216 217 215 220 215 220
331 330 324 316 296 251 246 262 338 335 299 297 299 285 277 249 230 251 248 215 215 180 195 178 155 209 253 261 250 195 196 214 165 243 274 267 224 201 212 252 294 276 274 278 221 209 200 175 162 164 143 305 286 273 253 225 225 251 259 283 282 282 285 257 244 258 259 269 276 266 255 245 171 85 116 124 109 254 207 222 215 201 209 208 208 218 215 220
329 326 318 306 280 247 245 268 305 310 303 293 280 268 262 252 247 250 252 253 132 87 344 277 150 263 278 255 221 135 242 238 218 247 235 271 259 186 181 267 314 289 300 327 300 214 172 159 165 167 136 154 288 306 315 321 308 296 307 318 299 292 285 275 255 253 265 273 287 283 253 189 103 99 139 127 133 186 232 256 242 209 211 207 204 212 213 218
328 320 310 296 272 252 241 250 269 288 295 277 258 250 241 249 257 258 265 254 143 136 238 249 244 246 263 273 184 128 232 219 221 279 220 238 251 183 159 171 143 295 307 320 308 303 271 183 173 169 100 139 279 317 360 339 304 315 355 342 305 303 292 302 294 272 290 309 329 330 278 148 91 139 167 136 143 127 61 314 306 209 207 210 206 207 214 218
331 318 302 285 268 256 234 230 244 268 276 259 246 241 236 247 249 249 284 335 108 173 192 162 261 247 226 242 178 143 243 199 152 260 254 261 280 92 114 103 81 341 326 334 337 324 301 3 87 67 55 266 282 339 4 318 283 335 352 306 287 311 310 309 295 292 314 315 312 333 355 79 97 148 154 128 121 109 88 27 352 306 181 193 204 200 211 222
334 322 293 260 250 241 218 218 227 239 250 247 238 235 234 248 259 264 321 3 11 318 243 166 224 251 225 205 187 163 195 205 250 257 225 236 294 360 36 38 37 346 331 323 326 330 315 356 63 251 252 240 339 15 335 299 317 335 308 301 326 325 315 304 296 306 320 300 271 248 161 123 130 141 123 84 57 68 82 75 9 299 180 159 194 197 205 217
330 316 284 260 237 202 190 198 208 221 236 245 238 244 248 247 262 278 304 13 349 335 298 268 201 239 270 243 189 169 176 201 239 253 214 192 217 10 25 61 48 338 333 314 313 356 342 300 286 279 295 120 108 349 282 251 272 292 311 360 358 289 286 296 297 310 303 278 265 275 283 127 142 170 107 79 54 44 52 87 122 301 265 171 180 199 204 209
319 302 284 267 216 168 179 190 199 215 227 241 241 252 265 265 282 314 11 3 285 264 264 275 233 195 272 275 155 159 176 186 204 232 247 168 120 52 299 117 123 335 320 296 297 356 340 300 277 173 131 68 127 238 256 185 199 280 347 345 333 286 298 322 298 295 292 284 281 290 309 58 82 57 131 74 40 33 20 23 57 358 305 238 183 200 215 214
299 276 277 236 176 161 175 181 198 220 225 236 239 244 258 262 271 292 345 346 278 260 257 267 257 207 257 291 53 143 208 218 203 264 280 113 102 177 301 24 136 124 326 291 297 339 317 299 298 148 191 302 241 261 313 126 190 316 329 314 328 323 333 337 297 289 288 288 294 299 310 47 58 40 81 61 30 28 14 8 23 29 283 271 234 207 213 226
289 277 265 162 157 161 165 174 204 223 224 234 242 248 251 257 256 239 210 247 261 251 261 267 258 232 257 289 320 293 267 247 277 314 303 138 176 192 147 134 216 116 18 276 280 310 280 261 295 321 254 237 228 18 13 8 327 317 314 319 342 332 340 326 300 319 320 296 294 289 298 74 71 19 50 49 23 12 7 5 3 1 290 289 287 236 213 209
289 286 221 148 151 159 161 181 215 217 232 237 245 256 256 267 276 238 163 197 250 247 263 284 289 283 283 284 271 259 269 256 259 282 255 177 202 229 101 96 245 355 354 284 278 332 328 303 311 322 303 274 354 34 31 8 348 323 325 349 356 350 351 316 293 343 347 317 312 293 288 83 69 17 25 2 343 12 12 4 347 346 356 338 334 294 244 216
267 277 164 148 158 168 176 218 222 215 240 238 240 253 251 258 279 278 166 192 240 250 249 264 279 291 305 301 287 273 276 266 239 232 226 163 104 66 77 73 31 349 323 286 325 25 349 308 304 304 298 303 309 310 5 38 354 311 334 16 2 347 338 300 301 334 321 308 316 303 291 35 19 3 353 307 317 40 32 0 337 347 7 346 344 2 344 305
260 291 147 155 171 185 208 242 227 224 241 244 249 254 252 229 243 262 249 206 216 240 237 233 251 269 270 268 280 268 222 250 255 276 330 2 96 104 105 76 18 305 289 281 351 24 330 283 295 291 292 295 286 276 192 137 206 359 48 14 330 317 278 263 292 306 296 297 311 311 300 332 340 325 300 295 326 32 45 3 339 352 9 346 336 350 11 19
299 300 229 177 182 199 230 244 238 236 232 236 243 248 256 260 237 250 252 225 207 225 237 230 234 248 242 243 266 265 225 209 247 286 326 320 72 88 113 107 67 274 303 360 11 8 321 318 346 298 299 290 264 231 141 153 329 353 295 263 263 283 279 269 280 286 279 284 296 296 294 266 225 258 316 348 353 6 12 353 347 357 4 7 337 323 350 42
299 281 254 194 184 209 240 241 251 257 247 245 245 242 249 247 226 239 255 252 226 220 241 238 231 248 245 220 243 260 273 308 225 230 264 239 126 130 166 130 140 263 32 33 3 341 320 327 334 306 308 308 297 341 356 325 328 303 289 277 233 218 279 308 292 281 271 287 299 287 290 344 234 318 29 23 9 1 351 339 341 351 356 18 340 302 320 39
294 270 257 207 186 211 237 243 256 264 269 273 272 257 246 235 218 220 239 258 246 228 241 241 225 237 235 219 229 234 239 254 244 256 327 294 281 211 159 147 200 213 70 43 340 315 302 296 293 278 272 280 295 312 300 291 299 308 314 309 290 289 6 319 285 286 294 305 297 279 354 335 332 61 51 35 25 8 349 339 337 337 341 353 3 293 315 23
282 279 276 259 203 209 223 235 242 249 260 268 277 274 256 244 237 214 202 230 255 244 243 245 239 242 234 225 235 232 224 232 239 245 235 248 284 276 156 177 204 166 112 125 247 251 280 273 267 262 258 258 259 266 278 279 292 310 314 315 315 316 305 276 267 289 301 293 285 302 9 311 329 80 78 356 360 31 23 358 337 328 330 339 359 3 332 91
272 275 295 329 301 236 236 244 240 243 247 247 254 271 268 257 253 237 198 197 240 249 235 233 240 250 251 238 234 232 225 223 234 242 225 223 270 238 175 204 205 135 136 239 232 206 246 265 273 272 273 277 278 287 296 292 295 307 303 302 304 297 288 283 279 293 312 305 311 334 319 304 347 93 127 191 27 46 33 358 334 332 330 338 6 24 26 57
296 288 315 343 325 282 285 293 288 275 256 247 247 251 258 259 255 254 227 190 211 233 228 231 236 236 242 247 249 248 237 237 249 252 253 287 305 284 225 239 144 134 178 250 239 197 234 258 292 288 291 300 302 300 295 291 291 291 289 292 294 288 285 285 285 304 322 297 316 335 313 315 18 81 121 93 80 83 65 349 345 2 350 356 25 34 38 46
315 319 324 333 321 305 301 295 293 287 267 262 260 247 255 261 257 263 256 224 219 216 207 229 247 240 235 235 238 242 241 252 264 244 218 250 270 267 262 270 161 182 232 247 142 127 218 299 318 294 291 294 284 271 273 281 291 287 282 288 293 293 294 291 288 300 302 293 315 327 301 315 42 41 65 77 80 95 95 47 16 21 8 21 38 36 38 47
329 328 318 307 298 302 302 288 279 272 257 254 260 259 261 257 254 265 272 264 260 245 211 215 234 243 246 239 234 237 232 239 254 246 215 231 243 233 230 205 100 268 263 252 209 161 211 275 295 275 265 271 276 274 274 281 292 289 283 283 287 297 304 295 287 297 306 305 308 303 295 351 48 15 30 83 80 82 87 74 59 44 29 37 42 37 42 52
340 330 321 309 286 283 285 278 271 267 260 253 251 252 257 258 256 258 261 262 263 261 250 236 234 238 246 241 236 233 224 224 243 255 233 230 238 239 231 218 264 276 286 301 302 284 240 241 270 283 288 290 286 288 291 290 287 282 291 311 317 306 298 291 292 297 289 280 288 300 336 76 33 322 311 52 72 78 69 57 66 67 58 60 51 42 58 65